This is the latest recevied weather packets stored in our database for station/object W1GK. If no packets are shown the sender has not sent any weather packets the latest 10 day(s).
| Time | Temp. | Humidity | Pressure | Rain* | Wind** | Luminosity | Snow |
|---|---|---|---|---|---|---|---|
| 1787576998 | 30° C | 26% | 1015.9 hPa | 0 mm | - | 0 W/m² | - |
| 1787576400 | 30° C | 32% | 1015.7 hPa | 0 mm | - | 0 W/m² | - |
| 1787575799 | 30° C | 35% | 1015.5 hPa | 0 mm | - | 0 W/m² | - |
| 1787575198 | 30.56° C | 32% | 1015.4 hPa | 0 mm | - | 0 W/m² | - |
| 1787574598 | 31.67° C | 29% | 1015.4 hPa | 0 mm | - | 0 W/m² | - |
| 1787573997 | 31.67° C | 24% | 1015.3 hPa | 0 mm | - | 0 W/m² | - |
| 1787573396 | 31.67° C | 20% | 1015.3 hPa | 0 mm | - | 0 W/m² | - |
| 1787572796 | 32.22° C | 18% | 1015.3 hPa | 0 mm | - | 0 W/m² | - |
| 1787572196 | 32.22° C | 18% | 1015.3 hPa | 0 mm | - | 0 W/m² | - |
| 1787571597 | 32.78° C | 17% | 1015 hPa | 0 mm | - | 0 W/m² | - |
| 1787570997 | 32.78° C | 16% | 1014.6 hPa | 0 mm | - | 0 W/m² | - |
| 1787570396 | 32.78° C | 17% | 1014.5 hPa | 0 mm | - | 0 W/m² | - |
| 1787569797 | 32.78° C | 16% | 1014.5 hPa | 0 mm | - | 0 W/m² | - |
| 1787569196 | 32.78° C | 16% | 1014.5 hPa | 0 mm | - | 0 W/m² | - |
| 1787568596 | 32.78° C | 16% | 1014.5 hPa | 0 mm | - | 0 W/m² | - |
| 1787567995 | 32.78° C | 16% | 1014.4 hPa | 0 mm | - | 0 W/m² | - |
| 1787567396 | 32.78° C | 16% | 1014.4 hPa | 0 mm | - | 0 W/m² | - |
| 1787566796 | 32.78° C | 16% | 1014.5 hPa | 0 mm | - | 0 W/m² | - |
| 1787566196 | 32.78° C | 15% | 1014.4 hPa | 0 mm | - | 0 W/m² | - |
| 1787565599 | 32.78° C | 16% | 1014.3 hPa | 0 mm | - | 0 W/m² | - |
| 1787564996 | 32.22° C | 16% | 1014.3 hPa | 0 mm | - | 0 W/m² | - |
| 1787564395 | 32.22° C | 17% | 1014.3 hPa | 0 mm | - | 0 W/m² | - |
| 1787563796 | 32.78° C | 17% | 1014.2 hPa | 0 mm | - | 0 W/m² | - |
| 1787563197 | 32.78° C | 17% | 1014.2 hPa | 0 mm | - | 0 W/m² | - |
| 1787562595 | 32.78° C | 16% | 1014.1 hPa | 0 mm | - | 0 W/m² | - |
* Rain latest hour (hover to see other rain measurements)
** Current wind speed in m/s (hover to see current wind gust speed)